Skip Page Navigation
NASA JPL Caltech
NASA Logo - Jet Propulsion Laboratory + View the NASA Portal
+ Center for Near-Earth Object Studies
JPL Home Earth Solar System Stars & Galaxies Technology
JPL Solar System Dynamics
BODIES ORBITS EPHEMERIDES TOOLS PHYSICAL DATA DISCOVERY FAQ SITE MAP
JPL Small-Body Database Browser
Search: [ help ]  
437358 (2013 TT142)
Classification: Main-belt Asteroid          SPK-ID: 2437358
Ephemeris | Orbit Diagram | Orbital Elements | Mission Design | Physical Parameters | Discovery Circumstances ]

[ hide orbit diagram ]

For accurate long-term ephemerides, please instead use our Horizons system.This orbit viewer was implemented using two-body methods, and hence should not be used for determining accurate long-term trajectories (over several years or decades) or planetary encounter circumstances.


[ revert to old Java-based viewer ]

Orbital Elements at Epoch 2459000.5 (2020-May-31.0) TDB
Reference: JPL 10 (heliocentric ecliptic J2000)
 Element Value Uncertainty (1-sigma)   Units 
e .1150561315966455 7.8485e-08  
a 2.41271343514236 4.034e-08 au
q 2.135115960643626 2.0382e-07 au
i 3.566918767675068 9.6276e-06 deg
node 220.5616545219579 9.7385e-05 deg
peri 217.2017556143997 0.00011 deg
M 241.8248226660141 5.9324e-05 deg
tp 2459449.845919935689
(2021-Aug-23.34591994)
0.00023408 TDB
period 1368.853720605558
3.75
3.433e-05
9.399e-08
d
yr
n .2629937695904731 6.5957e-09 deg/d
Q 2.690310909641094 4.4981e-08 au
  Orbit Determination Parameters
   # obs. used (total)      104  
   data-arc span      4996 days (13.68 yr)  
   first obs. used      2006-11-23  
   last obs. used      2020-07-28  
   planetary ephem.      DE431  
   SB-pert. ephem.      SB431-N16  
   condition code      0  
   norm. resid. RMS      .56894  
   source      ORB  
   producer      Otto Matic  
   solution date      2020-Aug-26 00:40:05  

Additional Information
 Earth MOID = 1.15168 au 
 Jupiter MOID = 2.52782 au 
 T_jup = 3.507 
[ show covariance matrix ]

Ephemeris | Orbit Diagram | Orbital Elements | Mission Design | Physical Parameters | Discovery Circumstances ]

Physical Parameter Table
Parameter Symbol Value Units Sigma Reference Notes
absolute magnitude H 17.8   n/a MPO434609  

437358 (2013 TT142)          Discovered 2009-Aug-29 by Spacewatch at Kitt Peak
Reference: Last Updated: 2015-06-04

Alternate Designations
 2013 TT142 = 2009 SH14 
Ephemeris | Orbit Diagram | Orbital Elements | Mission Design | Physical Parameters | Discovery Circumstances ]
ABOUT SSD CREDITS/AWARDS PRIVACY/COPYRIGHT GLOSSARY LINKS
FirstGov 2020-Sep-26 22:49 UT
(server date/time)  
NASA Home Page
Site Manager:   Ryan S. Park
Webmaster  Alan B. Chamberlin